Multibeam Report for TN321


Ship Name: Thomas G. Thompson
Chief Scientist: None
Source Organization: UNOLS R2R
Start Date: 2015-05-13
End Date: 2015-05-16


View ISO Metadata

Visit the full NCEI Bathymetry Viewer


Multibeam Bathymetry

Cruise Details

Project: Transit
Instrument: Kongsberg EM302

Data Quality

Number of Files: 171
Number of Records: 130810
BATHYMETRY DATA Quantity Percentage
Number of Beams 37673280 100%
Number of Good Beams 36527796 96.96%
Number of Zero Beams 0 0%
Number of Flagged Beams 1145484 3.04%

Navigation Totals

Total Time: 83.3087 hours
Total Track Length: 1816.1751 km
Average Speed: 21.801 km/hr (11.7716 knots)

Cruise Bounds

Northern Extent: 46.16983
Southern Extent: 32.64903
Western Extent: -125.16289
Eastern Extent: -117.33662

Limits

Minimum Sonar Depth 3.3035 Maximum Sonar Depth 8.9565
Minimum Altitude 22.4144 Maximum Altitude 5064.3276
Minimum Depth 13.614 Maximum Depth 5486.8687

File Information

Full Resolution Bathymetry as collected (raw): 168

Files File Size Description
0000_20150512_173808_TGT.all.mb58.gz 35.11MB Kongsberg multibeam vendor format
0001_20150512_180810_TGT.all.mb58.gz 21.10MB Kongsberg multibeam vendor format
0002_20150512_183813_TGT.all.mb58.gz 9.82MB Kongsberg multibeam vendor format
0003_20150512_190811_TGT.all.mb58.gz 9.87MB Kongsberg multibeam vendor format
0004_20150512_193809_TGT.all.mb58.gz 10.96MB Kongsberg multibeam vendor format
0005_20150512_200810_TGT.all.mb58.gz 18.89MB Kongsberg multibeam vendor format
0006_20150512_203809_TGT.all.mb58.gz 19.62MB Kongsberg multibeam vendor format
0007_20150512_210811_TGT.all.mb58.gz 17.10MB Kongsberg multibeam vendor format
0008_20150512_213811_TGT.all.mb58.gz 9.79MB Kongsberg multibeam vendor format
0009_20150512_220813_TGT.all.mb58.gz 9.59MB Kongsberg multibeam vendor format
0010_20150512_223812_TGT.all.mb58.gz 9.38MB Kongsberg multibeam vendor format
0011_20150512_230811_TGT.all.mb58.gz 9.19MB Kongsberg multibeam vendor format
0012_20150512_233812_TGT.all.mb58.gz 11.40MB Kongsberg multibeam vendor format
0013_20150513_000811_TGT.all.mb58.gz 19.94MB Kongsberg multibeam vendor format
0014_20150513_003811_TGT.all.mb58.gz 16.01MB Kongsberg multibeam vendor format
0015_20150513_010810_TGT.all.mb58.gz 9.45MB Kongsberg multibeam vendor format
0016_20150513_013810_TGT.all.mb58.gz 15.48MB Kongsberg multibeam vendor format
0017_20150513_020809_TGT.all.mb58.gz 9.36MB Kongsberg multibeam vendor format
0018_20150513_023810_TGT.all.mb58.gz 8.34MB Kongsberg multibeam vendor format
0019_20150513_030810_TGT.all.mb58.gz 7.40MB Kongsberg multibeam vendor format
0020_20150513_033812_TGT.all.mb58.gz 14.25MB Kongsberg multibeam vendor format
0021_20150513_040809_TGT.all.mb58.gz 18.68MB Kongsberg multibeam vendor format
0022_20150513_043810_TGT.all.mb58.gz 25.31MB Kongsberg multibeam vendor format
0023_20150513_050810_TGT.all.mb58.gz 27.49MB Kongsberg multibeam vendor format
0024_20150513_053809_TGT.all.mb58.gz 26.15MB Kongsberg multibeam vendor format
0025_20150513_060809_TGT.all.mb58.gz 22.47MB Kongsberg multibeam vendor format
0026_20150513_063810_TGT.all.mb58.gz 18.81MB Kongsberg multibeam vendor format
0027_20150513_070811_TGT.all.mb58.gz 16.66MB Kongsberg multibeam vendor format
0028_20150513_073811_TGT.all.mb58.gz 15.57MB Kongsberg multibeam vendor format
0029_20150513_080811_TGT.all.mb58.gz 9.99MB Kongsberg multibeam vendor format
0030_20150513_083813_TGT.all.mb58.gz 8.02MB Kongsberg multibeam vendor format
0031_20150513_090811_TGT.all.mb58.gz 6.36MB Kongsberg multibeam vendor format
0032_20150513_093812_TGT.all.mb58.gz 6.41MB Kongsberg multibeam vendor format
0033_20150513_100813_TGT.all.mb58.gz 7.10MB Kongsberg multibeam vendor format
0034_20150513_103810_TGT.all.mb58.gz 7.41MB Kongsberg multibeam vendor format
0035_20150513_110814_TGT.all.mb58.gz 6.93MB Kongsberg multibeam vendor format
0036_20150513_113810_TGT.all.mb58.gz 12.65MB Kongsberg multibeam vendor format
0037_20150513_120811_TGT.all.mb58.gz 7.37MB Kongsberg multibeam vendor format
0038_20150513_123812_TGT.all.mb58.gz 7.30MB Kongsberg multibeam vendor format
0039_20150513_130810_TGT.all.mb58.gz 7.67MB Kongsberg multibeam vendor format
0040_20150513_133810_TGT.all.mb58.gz 8.10MB Kongsberg multibeam vendor format
0041_20150513_140812_TGT.all.mb58.gz 8.23MB Kongsberg multibeam vendor format
0042_20150513_143810_TGT.all.mb58.gz 8.61MB Kongsberg multibeam vendor format
0043_20150513_150811_TGT.all.mb58.gz 16.61MB Kongsberg multibeam vendor format
0044_20150513_153812_TGT.all.mb58.gz 20.29MB Kongsberg multibeam vendor format
0045_20150513_160810_TGT.all.mb58.gz 14.02MB Kongsberg multibeam vendor format
0046_20150513_163811_TGT.all.mb58.gz 9.15MB Kongsberg multibeam vendor format
0047_20150513_170813_TGT.all.mb58.gz 8.42MB Kongsberg multibeam vendor format
0048_20150513_173816_TGT.all.mb58.gz 8.34MB Kongsberg multibeam vendor format
0049_20150513_180813_TGT.all.mb58.gz 8.59MB Kongsberg multibeam vendor format
0050_20150513_183811_TGT.all.mb58.gz 8.33MB Kongsberg multibeam vendor format
0051_20150513_190815_TGT.all.mb58.gz 8.06MB Kongsberg multibeam vendor format
0052_20150513_193812_TGT.all.mb58.gz 8.25MB Kongsberg multibeam vendor format
0053_20150513_200814_TGT.all.mb58.gz 8.51MB Kongsberg multibeam vendor format
0054_20150513_203813_TGT.all.mb58.gz 8.44MB Kongsberg multibeam vendor format
0055_20150513_210812_TGT.all.mb58.gz 8.83MB Kongsberg multibeam vendor format
0056_20150513_213810_TGT.all.mb58.gz 8.44MB Kongsberg multibeam vendor format
0057_20150513_220814_TGT.all.mb58.gz 7.66MB Kongsberg multibeam vendor format
0058_20150513_223813_TGT.all.mb58.gz 7.77MB Kongsberg multibeam vendor format
0059_20150513_230811_TGT.all.mb58.gz 7.69MB Kongsberg multibeam vendor format
0060_20150513_233813_TGT.all.mb58.gz 8.14MB Kongsberg multibeam vendor format
0061_20150514_000812_TGT.all.mb58.gz 8.15MB Kongsberg multibeam vendor format
0062_20150514_003815_TGT.all.mb58.gz 7.72MB Kongsberg multibeam vendor format
0063_20150514_010810_TGT.all.mb58.gz 7.60MB Kongsberg multibeam vendor format
0064_20150514_013816_TGT.all.mb58.gz 7.49MB Kongsberg multibeam vendor format
0065_20150514_020813_TGT.all.mb58.gz 7.17MB Kongsberg multibeam vendor format
0066_20150514_023816_TGT.all.mb58.gz 7.25MB Kongsberg multibeam vendor format
0067_20150514_030816_TGT.all.mb58.gz 7.29MB Kongsberg multibeam vendor format
0068_20150514_033814_TGT.all.mb58.gz 7.46MB Kongsberg multibeam vendor format
0069_20150514_040816_TGT.all.mb58.gz 7.95MB Kongsberg multibeam vendor format
0070_20150514_043817_TGT.all.mb58.gz 9.56MB Kongsberg multibeam vendor format
0071_20150514_050812_TGT.all.mb58.gz 19.81MB Kongsberg multibeam vendor format
0072_20150514_053811_TGT.all.mb58.gz 15.92MB Kongsberg multibeam vendor format
0073_20150514_060812_TGT.all.mb58.gz 10.38MB Kongsberg multibeam vendor format
0074_20150514_063814_TGT.all.mb58.gz 8.98MB Kongsberg multibeam vendor format
0075_20150514_070816_TGT.all.mb58.gz 7.95MB Kongsberg multibeam vendor format
0076_20150514_073811_TGT.all.mb58.gz 7.62MB Kongsberg multibeam vendor format
0077_20150514_080814_TGT.all.mb58.gz 7.56MB Kongsberg multibeam vendor format
0078_20150514_083814_TGT.all.mb58.gz 7.96MB Kongsberg multibeam vendor format
0079_20150514_090816_TGT.all.mb58.gz 7.81MB Kongsberg multibeam vendor format
0080_20150514_093817_TGT.all.mb58.gz 7.69MB Kongsberg multibeam vendor format
0081_20150514_100811_TGT.all.mb58.gz 7.55MB Kongsberg multibeam vendor format
0082_20150514_103813_TGT.all.mb58.gz 7.60MB Kongsberg multibeam vendor format
0083_20150514_110814_TGT.all.mb58.gz 7.38MB Kongsberg multibeam vendor format
0084_20150514_113815_TGT.all.mb58.gz 7.53MB Kongsberg multibeam vendor format
0085_20150514_120812_TGT.all.mb58.gz 7.57MB Kongsberg multibeam vendor format
0086_20150514_123816_TGT.all.mb58.gz 7.22MB Kongsberg multibeam vendor format
0087_20150514_130813_TGT.all.mb58.gz 7.47MB Kongsberg multibeam vendor format
0088_20150514_133813_TGT.all.mb58.gz 7.30MB Kongsberg multibeam vendor format
0089_20150514_140816_TGT.all.mb58.gz 7.27MB Kongsberg multibeam vendor format
0090_20150514_143813_TGT.all.mb58.gz 7.36MB Kongsberg multibeam vendor format
0091_20150514_150817_TGT.all.mb58.gz 7.42MB Kongsberg multibeam vendor format
0092_20150514_153820_TGT.all.mb58.gz 7.20MB Kongsberg multibeam vendor format
0093_20150514_160816_TGT.all.mb58.gz 7.18MB Kongsberg multibeam vendor format
0094_20150514_163816_TGT.all.mb58.gz 7.38MB Kongsberg multibeam vendor format
0095_20150514_170818_TGT.all.mb58.gz 7.36MB Kongsberg multibeam vendor format
0096_20150514_173819_TGT.all.mb58.gz 7.19MB Kongsberg multibeam vendor format
0097_20150514_180816_TGT.all.mb58.gz 7.58MB Kongsberg multibeam vendor format
0098_20150514_183817_TGT.all.mb58.gz 7.31MB Kongsberg multibeam vendor format
0099_20150514_190814_TGT.all.mb58.gz 7.70MB Kongsberg multibeam vendor format
0100_20150514_193812_TGT.all.mb58.gz 8.42MB Kongsberg multibeam vendor format
0101_20150514_200812_TGT.all.mb58.gz 8.53MB Kongsberg multibeam vendor format
0102_20150514_203816_TGT.all.mb58.gz 8.34MB Kongsberg multibeam vendor format
0103_20150514_210812_TGT.all.mb58.gz 8.70MB Kongsberg multibeam vendor format
0104_20150514_213815_TGT.all.mb58.gz 8.92MB Kongsberg multibeam vendor format
0105_20150514_220816_TGT.all.mb58.gz 8.94MB Kongsberg multibeam vendor format
0106_20150514_223814_TGT.all.mb58.gz 8.95MB Kongsberg multibeam vendor format
0107_20150514_230812_TGT.all.mb58.gz 8.14MB Kongsberg multibeam vendor format
0108_20150514_233812_TGT.all.mb58.gz 7.33MB Kongsberg multibeam vendor format
0109_20150515_000812_TGT.all.mb58.gz 7.15MB Kongsberg multibeam vendor format
0110_20150515_003817_TGT.all.mb58.gz 7.14MB Kongsberg multibeam vendor format
0111_20150515_010813_TGT.all.mb58.gz 7.12MB Kongsberg multibeam vendor format
0112_20150515_013812_TGT.all.mb58.gz 6.97MB Kongsberg multibeam vendor format
0113_20150515_020812_TGT.all.mb58.gz 6.94MB Kongsberg multibeam vendor format
0114_20150515_023812_TGT.all.mb58.gz 6.97MB Kongsberg multibeam vendor format
0115_20150515_030816_TGT.all.mb58.gz 6.89MB Kongsberg multibeam vendor format
0116_20150515_033815_TGT.all.mb58.gz 7.00MB Kongsberg multibeam vendor format
0117_20150515_040812_TGT.all.mb58.gz 8.07MB Kongsberg multibeam vendor format
0118_20150515_043819_TGT.all.mb58.gz 7.49MB Kongsberg multibeam vendor format
0119_20150515_050817_TGT.all.mb58.gz 8.11MB Kongsberg multibeam vendor format
0120_20150515_053814_TGT.all.mb58.gz 8.56MB Kongsberg multibeam vendor format
0121_20150515_060817_TGT.all.mb58.gz 8.67MB Kongsberg multibeam vendor format
0122_20150515_063817_TGT.all.mb58.gz 12.30MB Kongsberg multibeam vendor format
0123_20150515_070815_TGT.all.mb58.gz 17.53MB Kongsberg multibeam vendor format
0124_20150515_073816_TGT.all.mb58.gz 9.48MB Kongsberg multibeam vendor format
0125_20150515_080817_TGT.all.mb58.gz 8.75MB Kongsberg multibeam vendor format
0126_20150515_083813_TGT.all.mb58.gz 9.09MB Kongsberg multibeam vendor format
0127_20150515_090812_TGT.all.mb58.gz 8.76MB Kongsberg multibeam vendor format
0128_20150515_093814_TGT.all.mb58.gz 8.12MB Kongsberg multibeam vendor format
0129_20150515_100814_TGT.all.mb58.gz 8.49MB Kongsberg multibeam vendor format
0130_20150515_103813_TGT.all.mb58.gz 12.40MB Kongsberg multibeam vendor format
0131_20150515_110816_TGT.all.mb58.gz 17.81MB Kongsberg multibeam vendor format
0132_20150515_113814_TGT.all.mb58.gz 20.41MB Kongsberg multibeam vendor format
0133_20150515_120813_TGT.all.mb58.gz 24.83MB Kongsberg multibeam vendor format
0134_20150515_123813_TGT.all.mb58.gz 29.18MB Kongsberg multibeam vendor format
0135_20150515_130813_TGT.all.mb58.gz 34.05MB Kongsberg multibeam vendor format
0136_20150515_133813_TGT.all.mb58.gz 31.43MB Kongsberg multibeam vendor format
0137_20150515_140813_TGT.all.mb58.gz 21.76MB Kongsberg multibeam vendor format
0138_20150515_143813_TGT.all.mb58.gz 17.77MB Kongsberg multibeam vendor format
0139_20150515_150814_TGT.all.mb58.gz 23.92MB Kongsberg multibeam vendor format
0140_20150515_153813_TGT.all.mb58.gz 22.43MB Kongsberg multibeam vendor format
0141_20150515_160814_TGT.all.mb58.gz 23.50MB Kongsberg multibeam vendor format
0142_20150515_163814_TGT.all.mb58.gz 26.11MB Kongsberg multibeam vendor format
0143_20150515_170813_TGT.all.mb58.gz 37.41MB Kongsberg multibeam vendor format
0144_20150515_173813_TGT.all.mb58.gz 54.41MB Kongsberg multibeam vendor format
0145_20150515_180813_TGT.all.mb58.gz 58.31MB Kongsberg multibeam vendor format
0146_20150515_183813_TGT.all.mb58.gz 63.13MB Kongsberg multibeam vendor format
0147_20150515_190813_TGT.all.mb58.gz 67.34MB Kongsberg multibeam vendor format
0148_20150515_193813_TGT.all.mb58.gz 72.18MB Kongsberg multibeam vendor format
0149_20150515_200813_TGT.all.mb58.gz 63.06MB Kongsberg multibeam vendor format
0150_20150515_203813_TGT.all.mb58.gz 55.91MB Kongsberg multibeam vendor format
0151_20150515_210814_TGT.all.mb58.gz 50.48MB Kongsberg multibeam vendor format
0152_20150515_213813_TGT.all.mb58.gz 48.98MB Kongsberg multibeam vendor format
0153_20150515_220814_TGT.all.mb58.gz 41.33MB Kongsberg multibeam vendor format
0154_20150515_223814_TGT.all.mb58.gz 31.63MB Kongsberg multibeam vendor format
0155_20150515_230814_TGT.all.mb58.gz 28.69MB Kongsberg multibeam vendor format
0156_20150515_233813_TGT.all.mb58.gz 29.50MB Kongsberg multibeam vendor format
0157_20150516_000813_TGT.all.mb58.gz 28.26MB Kongsberg multibeam vendor format
0158_20150516_003814_TGT.all.mb58.gz 28.58MB Kongsberg multibeam vendor format
0159_20150516_010814_TGT.all.mb58.gz 37.02MB Kongsberg multibeam vendor format
0160_20150516_013814_TGT.all.mb58.gz 44.45MB Kongsberg multibeam vendor format
0161_20150516_020814_TGT.all.mb58.gz 48.60MB Kongsberg multibeam vendor format
0162_20150516_023814_TGT.all.mb58.gz 52.03MB Kongsberg multibeam vendor format
0163_20150516_030813_TGT.all.mb58.gz 53.16MB Kongsberg multibeam vendor format
0164_20150516_033813_TGT.all.mb58.gz 58.94MB Kongsberg multibeam vendor format
0165_20150516_040814_TGT.all.mb58.gz 61.83MB Kongsberg multibeam vendor format
0166_20150516_043814_TGT.all.mb58.gz 65.11MB Kongsberg multibeam vendor format
0167_20150516_050814_TGT.all.mb58.gz 45.32MB Kongsberg multibeam vendor format

Metadata Files: 2

Files File Size Description
TN321_Multibeam.xml NGDC created ISO metadata
em302_bag_info.tar.gz 8.8KB Additional cruise information

Water Column Sonar Data

Water Column Sonar Data Available: WCSD Map Viewer